STARLINK-1775, 46681

Orbit data source: Space-Track

STARLINK-1775, 46681 is a payload satellite owned by SpaceX/Seattle (US) in LEO that was launched on Sun, 18 Oct 2020 UTC via an FALCON 9 launch vehicle from the Air Force Eastern Test Range (AFETR). Payload-class satellites include a variety of spacecraft equipped with specific instruments for various scientific and technological missions. These include communications satellites like Starlink; space stations such as the ISS; scientific satellites like the Hubble; Earth observation satellites from companies like Planet Labs, Umbra, and HawkEye 360; GPS; miniature CubeSats for education and research; and military/defense satellites.

Loading next visibility...
Identifier
46681, 2020-073M
Orbit
LEO
Country
Flag of USUS
Related business
Manufacturer
SpaceX/Seattle
Mission
Operational Commercial Communications
Bus & Motor
STARLINK, Unknown motor
Mass
260 kg wet, ~248 kg dry
Launch date (UTC)
2020-10-18 (5 years ago)
Launch vehicle
FALCON 9
Launch site
Air Force Eastern Test Range (AFETR)
Object type
Payload
Rocket body
Debris
Shape & HBR
Box + 1 Pan, 10.1 m
Radar Cross Section
13.562 m², Large (>1 m²)

Expand to show TLE details & history
Last TLE update: 17 hours ago

TLE from 17 hours ago
0 STARLINK-1775
1 46681U 20073M   25286.46365355  .00011629  00000-0  79824-3 0  9999
2 46681  53.0541 197.5419 0001368 101.9706 258.1436 15.06403647274720
Epoch: 2025-10-13T11:07Z
TLE epoch observation values (Epoch: 2025-10-13T11:07:39.666Z)
Latitude
-0.00006°
Longitude
8.36051°
Altitude
548.274 km
Speed
7.589 km/s
True Right ascension
13h 10m 10s
True Declination
0° 00' 00"
Sunlit
Object was in daylight at epoch
Visualization orbit readout
Latitude
Unknown
Longitude
Unknown
Altitude
Unknown
Speed
Unknown
Apparent Right ascension
Unknown
Apparent Declination
Unknown
Sunlit
N/A
Visualization observer readout
Local Sidereal Time
22:11:36
Azimuth
Unknown
Elevation
Unknown
Doppler factor
Unknown
Orbital elements
Apogee altitude
548.419 km
Perigee altitude
546.524 km
Semi-major axis
6,925.608 km
Eccentricity
0.00014
Inclination
53.0541°
RAAN
197.5419°
Arg. of periapsis
101.9706°
True anomaly
258.12826°
Mean anomaly
258.1436°
Eccentric anomaly
258.13593°
Mean motion
3.76579 °/min
Orbital period
95.6 mins
BSTAR
0.00079824
Loading maneuver chart data...
Computing Atmospheric mass density...
Loading historical data...
Loading historical data...
Loading historical data...
Loading historical data...
Loading historical data...
Loading historical data...
Loading historical data...

Documentation

Showing up to 5 results
|